Hourly Data Report for July 04, 2017

TORONTO CITY
ONTARIO

43°40'00.000" N
79°24'00.000" W
112.50 m
6158355
71508
XTO

Download Data

Hourly Data (July 2017)
Hourly Data Report for July 4, 2017
TIME
LST
Temp Definition
°C
Dew Point Definition
°C
Rel Hum Definition
%
Precip. Amount Definition
mm

Wind Dir Definition
10's deg

Wind Spd Definition
km/h
Visibility Definition
km
Stn Press Definition
kPa
Hmdx Definition


Wind Chill Definition


Weather Definition


00:00 18.5 11.3 63 0.0 LegendMM LegendMM   100.53     LegendNANA
01:00 17.3 11.4 68 0.0 LegendMM LegendMM   100.54     LegendNANA
02:00 16.8 11.0 69 0.0 LegendMM LegendMM   100.54     LegendNANA
03:00 16.3 11.9 75 0.0 LegendMM LegendMM   100.54     LegendNANA
04:00 16.0 12.2 78 0.0 LegendMM LegendMM   100.57     LegendNANA
05:00 15.8 12.2 79 0.0 LegendMM LegendMM   100.60     LegendNANA
06:00 17.1 12.3 73 0.0 LegendMM LegendMM   100.66     LegendNANA
07:00 19.6 12.8 65 0.0 LegendMM LegendMM   100.71     LegendNANA
08:00 21.8 12.4 55 0.0 LegendMM LegendMM   100.75     LegendNANA
09:00 23.0 11.2 47 0.0 LegendMM LegendMM   100.76 25   LegendNANA
10:00 23.3 12.9 52 0.0 LegendMM LegendMM   100.76 26   LegendNANA
11:00 23.6 8.6 38 0.0 LegendMM LegendMM   100.75     LegendNANA
12:00 24.1 9.7 40 0.0 LegendMM LegendMM   100.74 25   LegendNANA
13:00 25.1 10.3 39 0.0 LegendMM LegendMM   100.69 27   LegendNANA
14:00 24.8 9.7 38 0.0 LegendMM LegendMM   100.67 26   LegendNANA
15:00 24.8 7.3 33 0.0 LegendMM LegendMM   100.69 25   LegendNANA
16:00 25.7 8.5 34 0.0 LegendMM LegendMM   100.68 26   LegendNANA
17:00 24.3 6.6 32 0.0 LegendMM LegendMM   100.65     LegendNANA
18:00 24.1 6.4 32 0.0 LegendMM LegendMM   100.64     LegendNANA
19:00 23.4 6.3 33 0.0 LegendMM LegendMM   100.66     LegendNANA
20:00 22.2 5.8 35 0.0 LegendMM LegendMM   100.67     LegendNANA
21:00 20.7 8.3 45 0.0 LegendMM LegendMM   100.74     LegendNANA
22:00 19.8 8.1 47 0.0 LegendMM LegendMM   100.77     LegendNANA
23:00 19.1 8.9 52 0.0 LegendMM LegendMM   100.76     LegendNANA

Notes on Data Quality.

Legend

  • E = Estimated
  • M = Missing
  • NA = Not Available*
  • [empty] = Indicates an unobserved value
Date modified: